Location: Göttingen
(51.5413°N, 9.9158°E)
Time: 07:10:11
(UTC+02:00)

Envisat - Pass Details

Date: 31 January 2022
Orbit: 764 x 765 km, 98.2° (Epoch: 25 May)

Event Time Altitude Azimuth Distance (km) Brightness Sun altitude
Rises 07:08:26 0° 4° (N) 3,245 6.1 -8.3°
Reaches altitude 10° 07:11:26 10° 346° (NNW) 2,314 5.2 -7.9°
Maximum altitude 07:14:43 18° 306° (NW) 1,835 4.4 -7.4°
Drops below altitude 10° 07:18:00 10° 265° (W) 2,306 4.9 -6.9°
Sets 07:21:00 0° 247° (WSW) 3,228 5.8 -6.4°
